Weather reports worldwide

Advertisment
Shoeburyness Landwick, United Kingdom (3693): temperature & dewpoint: 25.10.2020 04:00:00 - 31.10.2020 04:00:00 (GMT)Shoeburyness Landwick, United Kingdom (3693): temperature -20cm & temperature -100cm: 25.10.2020 04:00:00 - 31.10.2020 04:00:00 (GMT)Shoeburyness Landwick, United Kingdom (3693): wind speed & gusts: 25.10.2020 04:00:00 - 31.10.2020 04:00:00 (GMT)Shoeburyness Landwick, United Kingdom (3693): wind direction: 25.10.2020 04:00:00 - 31.10.2020 04:00:00 (GMT)Shoeburyness Landwick, United Kingdom (3693): reduced air pressure: 25.10.2020 04:00:00 - 31.10.2020 04:00:00 (GMT)Shoeburyness Landwick, United Kingdom (3693): visibility: 25.10.2020 04:00:00 - 31.10.2020 04:00:00 (GMT)Shoeburyness Landwick, United Kingdom (3693): sunshine duration: 25.10.2020 04:00:00 - 31.10.2020 04:00:00 (GMT)Shoeburyness Landwick, United Kingdom (3693): precipitation: 25.10.2020 04:00:00 - 31.10.2020 04:00:00 (GMT)
Date & Time tt [°C] td [°C] tt -20cm [°C] tt -100cm [°C] ff [km/h] ff [kn] fx [km/h] fx [kn] dd ppp [hPa] vv [km] sd [min] rr [mm]
31.10.2020 04:00:00 12,7 11,4 - - 18 10 - - SSW 1017,0 17 0 0,0
31.10.2020 03:00:00 13,0 11,7 - - 21 11 - - SSW 1017,6 16 0 0,0
31.10.2020 02:00:00 13,6 12,2 - - 18 10 - - SSW 1018,6 20 0 0,0
31.10.2020 01:00:00 14,1 12,7 - - 18 10 - - SW 1019,3 21 0 0,0
31.10.2020 00:00:00 13,8 12,5 - - 21 11 - - SW 1019,3 18 - 0,2
30.10.2020 23:00:00 14,4 13,1 - - 16 9 - - SW 1019,9 25 0 0,0
30.10.2020 22:00:00 14,3 13,3 - - 18 10 - - SW 1019,9 45 0 0,0
30.10.2020 21:00:00 14,3 13,5 - - 15 8 - - SW 1019,9 50 0 0,2
30.10.2020 20:00:00 14,4 13,7 - - 16 9 - - SW 1019,7 8 0 0,0
30.10.2020 19:00:00 14,9 13,5 - - 18 10 - - SW 1019,5 50 0 0,0
30.10.2020 18:00:00 15,1 13,4 - - 16 9 - - SW 1018,8 50 0 0,0
30.10.2020 17:00:00 15,2 13,5 - - 18 10 - - SW 1018,2 50 0 0,0
30.10.2020 16:00:00 15,6 13,6 - - 21 11 - - SW 1017,9 50 0 0,0
30.10.2020 15:00:00 15,9 13,6 - - 18 10 - - WSW 1017,6 35 0 0,0
30.10.2020 14:00:00 15,7 13,5 - - 24 13 - - WSW 1017,1 35 0 0,0
30.10.2020 13:00:00 15,7 13,5 - - 24 13 - - WSW 1016,7 35 6 0,0
30.10.2020 12:00:00 15,9 13,4 - - 26 14 - - WSW 1016,5 30 0 0,0
30.10.2020 11:00:00 15,8 13,0 - - 29 16 48 26 WSW 1016,4 35 0 0,0
30.10.2020 10:00:00 16,1 12,6 - - 26 14 - - WSW 1015,6 16 6 0,0
30.10.2020 09:00:00 15,7 12,3 11,5 13,0 26 14 - - WSW 1015,4 14 0 0,0
30.10.2020 08:00:00 15,1 12,2 - - 24 13 - - WSW 1015,0 14 0 0,0
30.10.2020 07:00:00 14,8 12,1 - - 24 13 - - WSW 1014,2 14 0 0,0
30.10.2020 06:00:00 14,5 12,1 - - 21 11 - - WSW 1013,9 23 0 0,0
30.10.2020 05:00:00 14,7 12,1 - - 24 13 - - WSW 1013,6 29 0 0,0
30.10.2020 04:00:00 14,4 12,3 - - 24 13 - - WSW 1013,2 29 0 0,0
30.10.2020 03:00:00 14,4 12,4 - - 26 14 - - WSW 1013,2 22 0 0,0
30.10.2020 02:00:00 14,6 12,0 - - 24 13 - - WSW 1013,3 30 0 0,0
30.10.2020 01:00:00 14,5 12,1 - - 22 12 - - WSW 1013,2 20 0 0,0
30.10.2020 00:00:00 14,5 11,9 - - 22 12 - - WSW 1013,2 25 - 0,0
29.10.2020 23:00:00 14,7 11,8 - - 26 14 - - WSW 1013,0 22 0 0,0
29.10.2020 22:00:00 14,7 11,7 - - 22 12 - - WSW 1012,7 14 0 0,0
29.10.2020 21:00:00 14,5 12,0 - - 24 13 - - WSW 1012,3 16 0 0,0
29.10.2020 20:00:00 14,3 11,9 - - 24 13 - - WSW 1012,4 15 0 0,0
29.10.2020 19:00:00 14,0 11,8 - - 22 12 - - WSW 1012,3 13 0 0,0
29.10.2020 18:00:00 13,9 12,0 - - 24 13 - - WSW 1012,0 22 0 0,0
29.10.2020 17:00:00 13,9 12,1 - - 26 14 - - WSW 1011,6 19 0 0,0
29.10.2020 16:00:00 13,9 12,2 - - 24 13 - - WSW 1011,6 25 0 0,0
29.10.2020 15:00:00 13,8 12,2 - - 26 14 - - WSW 1011,2 23 0 0,0
29.10.2020 14:00:00 13,6 12,3 - - 24 13 - - SW 1011,7 21 0 0,2
29.10.2020 13:00:00 12,5 11,8 - - 24 13 - - SW 1012,4 11 0 0,8
29.10.2020 12:00:00 12,2 11,2 - - 24 13 - - SSW 1013,2 8 0 0,6
29.10.2020 11:00:00 12,0 10,6 - - 21 11 - - SW 1014,2 9 0 0,4
29.10.2020 10:00:00 11,6 9,2 - - 21 11 - - SW 1014,1 16 0 0,0
29.10.2020 09:00:00 10,6 8,0 10,7 13,2 15 8 - - WSW 1014,3 16 0 0,0
29.10.2020 08:00:00 10,1 7,2 - - 16 9 - - WSW 1013,9 25 0 0,0
29.10.2020 07:00:00 9,7 6,8 - - 16 9 - - WSW 1012,9 23 0 0,0
29.10.2020 06:00:00 9,4 6,5 - - 13 7 - - WSW 1012,0 21 0 0,0
29.10.2020 05:00:00 9,2 6,6 - - 15 8 - - W 1011,6 18 0 0,0
29.10.2020 04:00:00 9,0 6,3 - - 13 7 - - W 1010,5 18 0 0,0
29.10.2020 03:00:00 8,9 5,8 - - 16 9 - - W 1010,0 23 0 0,0
29.10.2020 02:00:00 9,2 5,7 - - 21 11 - - W 1009,2 21 0 0,0
29.10.2020 01:00:00 9,1 6,3 - - 16 9 - - WSW 1008,3 24 0 0,0
29.10.2020 00:00:00 9,4 6,0 - - 22 12 - - W 1007,9 40 - 0,0
28.10.2020 23:00:00 9,2 5,4 - - - - - - - 1006,8 45 0 0,0
28.10.2020 22:00:00 9,6 6,5 - - 18 10 - - W 1005,9 35 0 0,0
28.10.2020 21:00:00 9,8 6,8 - - 21 11 - - WSW 1005,0 40 0 0,0
28.10.2020 20:00:00 9,8 6,7 - - 21 11 - - WSW 1004,4 40 0 0,0
28.10.2020 19:00:00 9,6 6,8 - - 21 11 - - WSW 1003,7 45 0 0,0
28.10.2020 18:00:00 9,0 6,7 - - 16 9 - - W 1003,3 50 0 0,2
28.10.2020 17:00:00 8,4 6,9 - - 22 12 57 31 WSW 1002,7 7 0 1,4
28.10.2020 16:00:00 11,6 8,1 - - 18 10 - - SW 1002,2 22 48 0,0
28.10.2020 15:00:00 11,7 7,5 - - 24 13 - - SW 1002,1 30 6 0,0
28.10.2020 14:00:00 12,7 7,5 - - 26 14 48 26 WSW 1002,4 26 0 0,0
28.10.2020 13:00:00 13,5 8,1 - - 21 11 - - WSW 1002,5 18 6 0,0
28.10.2020 12:00:00 13,3 8,4 - - 22 12 - - WSW 1002,7 20 12 0,0
28.10.2020 11:00:00 12,5 6,5 - - 21 11 - - WSW 1003,0 30 0 0,0
28.10.2020 10:00:00 12,2 8,1 - - 18 10 - - WSW 1003,2 14 18 0,0
28.10.2020 09:00:00 11,1 7,1 10,9 13,2 18 10 - - SW 1002,4 19 48 0,0
28.10.2020 08:00:00 10,4 7,0 - - 21 11 - - SW 1002,3 16 36 0,0
28.10.2020 07:00:00 9,8 6,8 - - 22 12 - - SW 1001,6 17 0 0,0
28.10.2020 06:00:00 9,7 6,6 - - 22 12 - - SW 1001,3 21 0 0,0
28.10.2020 05:00:00 9,5 6,5 - - 21 11 - - SW 1001,2 27 0 0,0
28.10.2020 04:00:00 9,5 6,2 - - 18 10 - - WSW 1001,0 24 0 0,0
28.10.2020 03:00:00 9,8 6,5 - - 21 11 - - WSW 1000,7 17 0 0,0
28.10.2020 02:00:00 9,4 7,6 - - 18 10 - - SW 1000,8 12 0 0,0
28.10.2020 01:00:00 9,5 7,1 - - 15 8 - - SW 1000,9 12 0 0,0
28.10.2020 00:00:00 10,1 7,3 - - 16 9 - - WSW 1000,7 13 - 0,0
27.10.2020 23:00:00 10,0 7,4 - - 18 10 - - WSW 1000,3 13 0 0,0
27.10.2020 22:00:00 10,2 7,8 - - 18 10 - - WSW 999,8 15 0 0,2
27.10.2020 21:00:00 10,4 7,6 - - 18 10 - - WSW 999,1 12 0 0,0
27.10.2020 20:00:00 11,1 7,8 - - 18 10 - - W 998,1 19 0 0,0
27.10.2020 19:00:00 11,8 9,4 - - 16 9 - - W 996,7 40 0 0,0
27.10.2020 18:00:00 12,1 10,3 - - 15 8 48 26 W 995,2 45 0 0,2
27.10.2020 17:00:00 13,0 12,7 - - 21 11 - - SW 994,2 11 0 0,8
27.10.2020 16:00:00 12,9 12,1 - - 29 16 54 29 SSW 993,8 5 0 0,2
27.10.2020 15:00:00 12,2 11,3 - - 39 21 55 30 SSW 994,3 24 0 0,0
27.10.2020 14:00:00 11,9 10,7 - - 42 23 55 30 SSW 995,3 17 0 0,0
27.10.2020 13:00:00 11,7 10,5 - - 35 19 48 26 SSW 996,5 29 0 0,2
27.10.2020 12:00:00 11,4 10,2 - - 26 14 - - SSW 998,0 45 0 0,0
27.10.2020 11:00:00 10,8 9,9 - - 18 10 - - SSW 999,2 16 0 0,0
27.10.2020 10:00:00 10,1 9,1 - - 21 11 - - S 1000,0 18 0 0,6
27.10.2020 09:00:00 9,4 7,9 11,0 13,5 16 9 - - SSW 1000,6 11 0 0,2
27.10.2020 08:00:00 9,3 7,3 - - 13 7 - - WSW 1001,0 28 0 0,0
27.10.2020 07:00:00 8,3 6,9 - - 13 7 - - SW 1001,0 23 0 0,0
27.10.2020 06:00:00 7,8 6,5 - - 11 6 - - SW 1000,9 22 0 0,0
27.10.2020 05:00:00 7,5 6,3 - - 13 7 - - WSW 1001,2 21 0 0,0
27.10.2020 04:00:00 7,6 6,1 - - 13 7 - - WSW 1001,1 18 0 0,0
27.10.2020 03:00:00 7,8 6,4 - - 15 8 - - WSW 1001,1 17 0 0,0
27.10.2020 02:00:00 8,7 6,5 - - 16 9 - - WSW 1001,3 20 0 0,0
27.10.2020 01:00:00 8,3 6,6 - - 11 6 - - WSW 1001,3 14 0 0,0
27.10.2020 00:00:00 8,8 6,8 - - 13 7 - - WSW 1001,4 16 - 0,0
26.10.2020 23:00:00 9,2 7,0 - - 16 9 - - WSW 1001,4 13 0 0,0
26.10.2020 22:00:00 9,6 7,1 - - 15 8 - - WSW 1001,1 15 0 0,0
26.10.2020 21:00:00 9,8 6,8 - - 16 9 - - W 1000,8 21 0 0,0
26.10.2020 20:00:00 10,0 6,9 - - 15 8 - - WSW 1000,1 25 0 0,0
26.10.2020 19:00:00 10,7 7,0 - - 16 9 - - WSW 999,8 35 0 0,0
26.10.2020 18:00:00 10,8 7,5 - - 13 7 - - W 999,1 35 0 0,0
26.10.2020 17:00:00 11,4 7,8 - - 13 7 - - WSW 998,4 40 18 0,0
26.10.2020 16:00:00 12,4 7,3 - - 16 9 - - W 997,8 50 42 0,0
26.10.2020 15:00:00 12,1 8,6 - - 15 8 - - WNW 997,4 45 36 0,2
26.10.2020 14:00:00 12,2 8,5 - - 16 9 - - W 997,1 15 18 0,0
26.10.2020 13:00:00 12,9 7,7 - - 24 13 - - W 996,8 35 48 0,0
26.10.2020 12:00:00 13,1 8,8 - - 18 10 - - WSW 997,0 28 18 0,0
26.10.2020 11:00:00 11,7 7,9 - - 21 11 - - SW 997,2 29 54 0,0
26.10.2020 10:00:00 11,0 7,4 - - 18 10 - - WSW 997,4 24 60 0,0
26.10.2020 09:00:00 10,3 7,4 11,7 13,5 21 11 - - SW 997,1 25 60 0,0
26.10.2020 08:00:00 9,2 7,2 - - 18 10 - - SW 996,9 29 48 0,0
26.10.2020 07:00:00 8,4 6,9 - - 16 9 - - SW 996,5 35 0 0,0
26.10.2020 06:00:00 8,1 7,0 - - 15 8 - - SW 996,3 40 0 0,0
26.10.2020 05:00:00 7,8 6,8 - - 15 8 - - SW 996,3 45 0 0,0
26.10.2020 04:00:00 8,0 7,0 - - 13 7 - - SW 996,2 50 0 0,0
26.10.2020 03:00:00 8,1 7,0 - - 16 9 - - SW 995,9 50 0 0,0
26.10.2020 02:00:00 8,8 6,8 - - 16 9 - - SW 996,2 50 0 0,0
26.10.2020 01:00:00 9,3 7,5 - - 22 12 - - SW 996,6 45 0 0,6
26.10.2020 00:00:00 9,6 7,1 - - 24 13 - - SW 996,9 40 - 0,0
25.10.2020 23:00:00 9,7 7,7 - - 24 13 - - SSW 997,1 50 0 0,0
25.10.2020 22:00:00 10,4 6,8 - - 18 10 - - SW 997,2 50 0 0,0
25.10.2020 21:00:00 10,2 7,0 - - 21 11 - - SW 997,1 45 0 0,0
25.10.2020 20:00:00 10,6 7,4 - - 18 10 - - SW 997,1 45 0 0,0
25.10.2020 19:00:00 10,6 8,3 - - 18 10 - - SSW 997,1 28 0 0,0
25.10.2020 18:00:00 9,8 8,0 - - 16 9 - - SSW 997,1 30 0 0,0
25.10.2020 17:00:00 10,3 7,9 - - 18 10 - - SSW 996,7 40 18 0,0
25.10.2020 16:00:00 11,3 7,3 - - 26 14 - - SW 996,7 35 42 0,0
25.10.2020 15:00:00 11,4 8,3 - - 24 13 - - SW 996,6 35 6 0,0
25.10.2020 14:00:00 11,2 7,7 - - 24 13 - - SSW 996,7 35 36 0,0
25.10.2020 13:00:00 11,4 8,9 - - 22 12 - - S 996,9 40 12 0,2
25.10.2020 12:00:00 10,5 6,8 - - 13 7 - - WSW 997,8 24 0 0,0
25.10.2020 11:00:00 11,5 8,5 - - 21 11 - - SSW 997,7 45 0 0,0
25.10.2020 10:00:00 10,9 7,6 - - 11 6 - - WSW 997,7 30 12 0,0
25.10.2020 09:00:00 11,7 8,7 12,4 13,5 16 9 - - SW 997,7 20 0 0,0
25.10.2020 08:00:00 10,7 7,3 - - 21 11 48 26 SW 997,6 45 0 0,6
25.10.2020 07:00:00 10,6 8,7 - - 18 10 - - SSW 997,4 20 0 0,0
25.10.2020 06:00:00 10,2 8,6 - - 18 10 - - SSW 997,0 23 0 0,0
25.10.2020 05:00:00 10,3 8,4 - - 16 9 - - SW 996,9 25 0 0,0
25.10.2020 04:00:00 10,6 8,2 - - 16 9 - - WSW 996,8 50 0 0,0

tt = temperature
td = dewpoint
tt -20cm = temperature -20cm
tt -100cm = temperature -100cm
ff = wind speed
fx = gusts
dd = wind direction
ppp = reduced air pressure
vv = visibility
sd = sunshine duration
rr = precipitation

Next stations